Starlink 11617

operational
NORAD ID: 63184 Int'l Des: 2025-048 Owner: SPXS Country: US Constellation: starlink
LEOCIRCULAR

Starlink 11617について

説明を読み込み中...

リアルタイム位置

3D地球を読み込み中...

次回通過

高度履歴

Altitude vs Time

uPlot chart will show altitude changes over time

軌道要素

1 63184U 25048B 25351.00066810 .00230313 00000-0 17454-2 0 9993
2 63184 42.9992 98.5616 0001108 315.6970 44.3809 15.70890473 45512
Epoch: Dec 17, 2025 • Age: 14 hours

現在のステータス

高度 355.6 km
速度 7.70 km/s
衛星直下点 -4.87°S, 157.69°E
打ち上げ日 Mar 13, 2025
運用期間 0.7 years
タイプ internet

技術仕様

分類 Payload
質量 960.00 kg
乾燥質量 910.00 kg
総質量 960.00 kg
長さ 0.30 m
直径 4.10 m
スパン 29.00 m
形状 Box + pan
製造者 SPXS
バスタイプ Starlink V2MD
フェーズステータス In Orbit
所有者/国 SPXS/US

大規模コンステレーション

Loading constellations...